Regional Weather Roundup
Issued by NWS

Home | Current Version | Previous Version | Graphics & Text | Print | Product List | Glossary On
Versions: 1 2 3 4 5 6 7 8 9 10 11 12 13 14 15 16 17 18 19 20 21 22 23 24 25 26 27 28 29 30 31 32 33 34 35 36 37 38 39 40 41 42 43 44 45 46 47 48 49 50
000
ASUS43 KLOT 121003
RWRIL

ILLINOIS REGIONAL WEATHER ROUNDUP
NATIONAL WEATHER SERVICE CHICAGO/ROMEOVILLE IL
400 AM CST TUE DEC 12 2017

NOTE: "FAIR" INDICATES FEW OR NO CLOUDS BELOW 12,000 FEET WITH NO
SIGNIFICANT WEATHER AND/OR OBSTRUCTIONS TO VISIBILITY.

* THESE STATIONS ARE NOT UNDER NWS QUALITY CONTROL. THEY ALSO MAY NOT
  REPORT WEATHER SUCH AS PRECIPITATION OR FOG.

ILZ001-002-007-009-015-016-024-121100-
NORTHWEST ILLINOIS

CITY           SKY/WX    TMP DP  RH WIND       PRES   REMARKS
MOLINE         CLEAR     22  13  68 NW15      30.14R WCI   9
STERLING*      CLEAR     19  10  68 NW13      30.11R WCI   6
SAVANNA*       CLEAR     20  10  66 N12G20    30.13R WCI   8
$$

ILZ003-004-008-010-011-017-018-121100-
NORTH CENTRAL ILLINOIS

CITY           SKY/WX    TMP DP  RH WIND       PRES   REMARKS
ROCKFORD       MOCLDY    19  10  68 NW12      30.08R WCI   7
FREEPORT*      PTCLDY    17   9  69 NW14G23   30.10R WCI   3
ROCHELLE*      MOCLDY    17  10  71 NW8       30.07R WCI   7
DE KALB*       CLOUDY    19  11  71 NW9       30.04S WCI   7
PERU*          PTCLDY    20  12  73 NW16      30.09R WCI   5
$$

ILZ005-006-012>014-019>023-121100-
NORTHEAST ILLINOIS

CITY           SKY/WX    TMP DP  RH WIND       PRES   REMARKS
CHICAGO-OHARE  PTCLDY    22  11  62 N20G25    30.01R WCI   7
CHICAGO-MIDWAY PTCLDY    23  11  60 N22G29    30.02R WCI   8
AURORA         CLEAR     19  10  68 NW15      30.05R WCI   5
LANSING*       CLOUDY    23  12  62 NW17G25   29.99R WCI   9
WAUKEGAN       CLEAR     19   7  59 NW8       30.00R WCI   9
DUPAGE AIRPORT CLEAR     19  11  70 NW16      30.02R WCI   4
WHEELING       CLEAR     21  12  68 NW14G22   30.03R WCI   8
ROMEOVILLE*    PTCLDY    21  12  69 NW13G21   30.03R WCI   8
NORTHERLY ISL    N/A     24  13  62 W14         N/A  WCI  12
$$

LMZ740>746-121100-
SOUTHERN LAKE MICHIGAN

STATION/POSITION SKY/WX   TEMP    WIND        PRES    VSBY  WAVE
                          AIR SEA DIR/SP/G                  HT/PER
                          (F)     (DEG/KT/KT) (MB)    (MI)  (FT/S)
HARRISON CRIB              25     310/ 24/ 28   N/A
BURNHAM HARBOR             24     280/  9/ 18   N/A
CALUMET HARBOR             24     300/ 12/ 20 1014.8R
BURNS HARBOR               28     340/ 23/ 32 1014.2R
MICHIGAN CITY              27     330/ 31/ 34   N/A
$$

ILZ025>027-034>036-040-047-049-050-058-095>099-121100-
WEST-CENTRAL ILLINOIS

CITY           SKY/WX    TMP DP  RH WIND       PRES   REMARKS
QUINCY         PTCLDY    26  18  71 N14       30.17R WCI  14
GALESBURG*     PTCLDY    23  16  75 NW14      30.14R WCI  10
MACOMB*        CLEAR     24  16  71 NW18G25   30.17S WCI  10
JACKSONVILLE*  CLOUDY    28  18  66 NW14G25   30.13R WCI  17
PITTSFIELD*    PTCLDY    28  19  71 NW17G24   30.18R WCI  15
$$

ILZ028>032-037-038-041>044-048-051>054-059>061-121100-
CENTRAL ILLINOIS

CITY           SKY/WX    TMP DP  RH WIND       PRES   REMARKS
BLOOMINGTON    MOCLDY    26  16  65 N28G33    30.04R WCI  10
DECATUR        CLOUDY    31  21  66 NW20G31   30.04R WCI  19
PEORIA         PTCLDY    25  15  66 N14G25    30.10R WCI  13
LACON*         PTCLDY    23  11  61 N15G23    30.10R WCI  10
LINCOLN*       PTCLDY    28  18  66 NW17G23   30.08R WCI  16
SPRINGFIELD    CLOUDY    30  18  60 NW16G28   30.10R WCI  19
TAYLORVILLE    NOT AVBL
$$

ILZ033-039-045-046-055>057-062-063-121100-
EAST-CENTRAL ILLINOIS

CITY           SKY/WX    TMP DP  RH WIND       PRES   REMARKS
CHAMPAIGN      CLOUDY    31  18  58 NW25G36   30.01R WCI  17
DANVILLE*      CLOUDY    30  20  65 NW16G25   29.95R WCI  19
MATTOON        CLOUDY    33  22  63 NW22      30.00S WCI  21
PARIS*         CLOUDY    32  19  60 NW22G29   29.99S WCI  19
$$

ILZ079-100>102-121100-
SOUTHWEST ILLINOIS

CITY           SKY/WX    TMP DP  RH WIND       PRES   REMARKS
BELLEVILLE     MOCLDY    36  22  57 N22       30.09R WCI  25
CAHOKIA*       CLOUDY    38  23  55 N17G31    30.12R WCI  28
$$

ILZ064>066-069>071-074>076-080>082-084>086-088>090-092>094-121100-
SOUTH-CENTRAL ILLINOIS

CITY           SKY/WX    TMP DP  RH WIND       PRES   REMARKS
CARBONDALE     CLOUDY    39  30  70 MISG      30.07R
CAIRO*         CLOUDY    42  32  67 NW12      30.06R
EFFINGHAM*     CLOUDY    34  24  68 W21       30.05R WCI  22
MT. VERNON     CLOUDY    36  24  62 N9G21     30.07R WCI  29
CENTRALIA*     CLOUDY    36  28  71 NW15G21   30.06S WCI  27
SALEM*         CLOUDY    36  24  61 NW18G28   30.06S WCI  26
METROPOLIS*    CLOUDY    42  32  67 NW10G21   30.04R
$$

ILZ067-068-072-073-078-083-087-091-121100-
SOUTHEAST ILLINOIS

CITY           SKY/WX    TMP DP  RH WIND       PRES   REMARKS
LAWRENCEVILLE  CLOUDY    36  28  73 NW22G28   30.01R WCI  25
FLORA*         CLOUDY    36  30  78 NW21      30.04R WCI  25
FAIRFIELD*     CLOUDY    36  29  76 NW9G18    30.03S WCI  29
HARRISBURG*    CLOUDY    38  32  78 N17G23    30.05R WCI  29
ROBINSON*      CLOUDY    33  24  70 NW21G29   30.01R WCI  21
CARMI*         LGT RAIN  37  34  90 NW22G28   30.02R WCI  25
$$

ABBREVIATIONS USED IN REMARKS
   TC - TEMPERATURE IN CELSIUS
  WCI - WIND CHILL INDEX
   HX - HEAT INDEX
  VSB - VISIBILITY
$$




USA.gov is the U.S. government's official web portal to all federal, state and local government web resources and services.